Regional Weather Roundup
Issued by NWS

Home | Current Version | Previous Version | Graphics & Text | Print | Product List | Glossary On
Versions: 1 2 3 4 5 6 7 8 9 10 11 12 13 14 15 16 17 18 19 20 21 22 23 24 25 26 27 28 29 30 31 32 33 34 35 36 37 38 39 40 41 42 43 44 45 46 47 48 49 50
391
ASUS43 KDTX 250810
RWRMI
MICHIGAN HOURLY REGIONAL WEATHER ROUNDUP
NATIONAL WEATHER SERVICE DETROIT/PONTIAC MI
400 AM EDT WED MAY 25 2016

NOTE: "FAIR" INDICATES FEW OR NO CLOUDS BELOW 12,000 FEET WITH NO
SIGNIFICANT WEATHER AND/OR OBSTRUCTION TO VISIBILITY.

MIZ047>049-052>055-059>063-066>070-074>076-081>083-250900-
SOUTHEAST LOWER MICHIGAN

CITY           SKY/WX    TMP DP  RH WIND       PRES   REMARKS
ADRIAN         CLOUDY    61  46  57 SW3       30.05R
ALMA           CLOUDY    58  54  86 MISG      29.99S
ANN ARBOR      CLEAR     56  49  77 SW3       30.03S
BAD AXE        CLOUDY    61  54  75 SE3       29.99F
CARO           PTCLDY    58  55  87 CALM      29.99S
DETROIT CITY   PTCLDY    68  44  42 SW8       30.02S
DETROIT        CLEAR     62  48  60 S5        30.04R
FLINT          MOCLDY    66  50  56 CALM      30.01R
GROSSE ILE     CLEAR     66  45  45 S5        30.02S
HILLSDALE      CLOUDY    65  44  47 CALM      30.05S
HOWELL         CLOUDY    66  48  51 SW6       30.02S

CITY           SKY/WX    TMP DP  RH WIND       PRES   REMARKS
JACKSON        CLOUDY    65  50  58 SW6       30.04R
LAMBERTVILLE   CLEAR     65  46  50 SW3       30.05R
LANSING        CLOUDY    67  51  56 SW8       30.02R
LAPEER         FAIR      56  53  89 CALM      30.02S
MASON          CLOUDY    66  50  55 CALM      30.03R
MONROE         CLEAR     63  47  55 S3        30.03R
MT. CLEMENS    CLOUDY    69  47  45 SW7       30.00S
PONTIAC        CLOUDY    65  49  56 W3        30.02R
PORT HOPE        N/A     59  56  89 CALM      29.98F
PORT HURON     CLOUDY    63  52  67 CALM      30.02R
TRI CITIES     CLOUDY    66  55  67 S5        29.99R
MIDLAND        MOCLDY    61  61  99 CALM      29.98S FOG
TROY           CLOUDY    68  48  48 SW6       30.04R
SAGINAW HB     PTCLDY    63  52  67 S7        29.98S
$$
MIZ043>046-050>051-056>058-064>065-071>073-077>080-250900-
SOUTHWEST LOWER MICHIGAN

CITY           SKY/WX    TMP DP  RH WIND       PRES   REMARKS
BATTLE CREEK   CLOUDY    64  51  62 SW6       30.04R
BENTON HARBOR  CLOUDY    70  55  59 S5        30.01R
BIG RAPIDS     MOCLDY    60  59  96 CALM      29.99R FOG
COLDWATER      PTCLDY    65  51  59 SW6       30.04R
FREMONT        MOCLDY    61  57  88 CALM      29.99R
HOLLAND        CLOUDY    72  56  57 SW15      30.01R
GRAND RAPIDS   CLOUDY    68  53  58 SW6       30.01R
IONIA          FAIR      65  51  61 SW6       30.00S
KALAMAZOO      MOCLDY    65  52  62 S3        30.03R
LUDINGTON      CLEAR     53  53  99 N3        29.99R
MARSHALL       PTCLDY    67  51  57 CALM      30.03R
MOUNT PLEASANT CLOUDY    63  59  86 S5        29.98S
MUSKEGON       CLEAR     65  51  60 SW7       29.99R
SOUTH HAVEN    CLOUDY    71  55  58 SW7       30.01R
$$
MIZ016>042-250900-
NORTHERN LOWER MICHIGAN

CITY           SKY/WX    TMP DP  RH WIND       PRES   REMARKS
ALPENA         CLEAR     55  51  86 N3        29.99S
BEAVER ISLAND  CLOUDY    53  53  99 CALM      29.99S FOG
BELLAIRE       FOG       53  52  97 CALM      30.00R VSB 1/4
CADILLAC       CLEAR     55  52  89 CALM      29.99R
CHARLEVOIX     FOG       51  51 100 CALM      30.02R VSB<1/4
FRANKFORT      CLEAR     57  53  85 CALM      29.97R
GAYLORD        CLEAR     56  55  97 NW3       30.00R FOG
GRAYLING       CLEAR     51  49  93 CALM      30.00S
HARBOR SPRINGS FOG       52  52  99 CALM      29.99R VSB 1/4
HOUGHTON LAKE  CLEAR     54  52  93 CALM      29.99S
MANISTEE       CLEAR     54  48  82 E3        29.98S
OSCODA         CLOUDY    59  49  69 CALM      29.98R
PELLSTON       MOCLDY    52  51  97 CALM      29.99S FOG
ROGERS CITY    CLEAR     56  53  91 CALM      30.00R
TRAVERSE CITY  CLEAR     55  51  86 CALM      29.98R
$$
MIZ007>008-015-250900-
EASTERN UPPER MICHIGAN

CITY           SKY/WX    TMP DP  RH WIND       PRES   REMARKS
KINROSS          N/A     54  52  94 CALM      29.99S VSB 1/4
MACKINAC ISLAN FOG       56  56 100 N5        29.99S VSB 1
NEWBERRY       FOG       52  51  97 CALM      29.99S VSB 1
S. S. MARIE    CLOUDY    53  52  96 CALM      29.98S FOG
MUNISING         N/A     46  45  96 N3        30.01F
$$
MIZ004>006-011>014-085-250900-
CENTRAL UPPER MICHIGAN

CITY           SKY/WX    TMP DP  RH WIND       PRES   REMARKS
MANISTIQUE     CLOUDY    54  53  97 N6        30.00R FOG
ESCANABA       CLOUDY    54  50  87 N6        30.01R
MENOMINEE      CLOUDY    57  55  94 E7        30.00R
SAWYER-GWINN   FOG       46  46  97 N7        30.04R VSB 1/2
$$
MIZ001>003-009>011-084-250900-
WESTERN UPPER MICHIGAN

CITY           SKY/WX    TMP DP  RH WIND       PRES   REMARKS
IRON MOUNTAIN  CLOUDY    55  53  93 N7        30.00R
HOUGHTON       FOG       48  47  96 E3        30.03S VSB 1/2
COPPER HARBOR    N/A     47  46  97 CALM      30.04R
IRONWOOD       CLOUDY    54  54 100 CALM      29.99R VSB 3/4
$$

ABBREVIATIONS USED IN REMARKS
   TC - TEMPERATURE IN CELSIUS
  WCI - WIND CHILL INDEX
   HX - HEAT INDEX
  VSB - VISIBILITY





USA.gov is the U.S. government's official web portal to all federal, state and local government web resources and services.